Content
SEND FEEDBACK

Daily
Averages
Monthly
Summary
United States of America

CUMBERLAND, MARYLAND


Home > North America > United States > Maryland
Elevation: 620 feet     Latitude: 39 36N     Longitude: 078 45W

WEATHER
 
SELECT A DAY
Number of Records: 222,589;   Date Range: 11/18/00 - 9/22/14
 
SHARE

PRINT THIS DATA

[ ← Previous Day ]
WEATHER ALMANAC - JANUARY 23, 2013
[ Next Day → ]
[ °C ]   °F
Weather ElementAverageHighLow
Temperature17.4 °F23 °F (2:25 pm)10.4 °F (6:15 am)
Dewpoint2.5 °F15.8 °F (11:59 pm)-0.4 °F (3:46 am)
Humidity53.3 %86 % (11:59 pm)36 % (2:25 pm)
Barometer30.25 in30.34 in (10:10 am)30.10 in (11:59 pm)
Wind Speed3.7 mph12.7 mph (1:42 pm)
Wind Gust19.6 mph (11:13 am)
Weather ElementAverage
Visibility9.7 mi
Wind DirectionSSE (156 °)

Weather ElementTotal
Precipitation---
Heating Degree Days48.3 (Base 65)
Averaged from 65 records on January 23, 2013
WEATHER CONDITIONS BREAKOUT
WIND DIRECTION BREAKOUT
WEATHER BY HOUR - JANUARY 23, 2013
[ °C ]   °F
Local TimeTemperatureDewpointHumidityBarometerVisibilityWind DirectionWind SpeedGust SpeedPrecipitationEventsConditions
12:34 AM12.2 °F3.2 °F67 %30.28 in10.0 miCalmScattered Clouds
12:55 AM12.2 °F3.2 °F67 %30.28 in10.0 miCalmScattered Clouds
1:16 AM14.0 °F3.2 °F62 %30.28 in10.0 miSW (220°)4.6 mphScattered Clouds
1:38 AM14.0 °F3.2 °F62 %30.28 in10.0 miWest (260°)6.9 mphScattered Clouds
1:59 AM12.2 °F3.2 °F67 %30.29 in10.0 miNW (310°)3.5 mphScattered Clouds
2:20 AM12.2 °F3.2 °F67 %30.30 in10.0 miNorth (360°)3.5 mphScattered Clouds
2:42 AM12.2 °F1.4 °F62 %30.30 in10.0 miCalmScattered Clouds
3:03 AM12.2 °F1.4 °F62 %30.30 in10.0 miCalmScattered Clouds
3:25 AM12.2 °F1.4 °F62 %30.31 in10.0 miWest (270°)8.1 mphScattered Clouds
3:46 AM12.2 °F-0.4 °F57 %30.30 in10.0 miWSW (250°)6.9 mphScattered Clouds
4:07 AM12.2 °F-0.4 °F57 %30.30 in10.0 miSSW (200°)3.5 mphScattered Clouds
4:29 AM12.2 °F-0.4 °F57 %30.30 in10.0 miCalmScattered Clouds
4:50 AM12.2 °F-0.4 °F57 %30.30 in10.0 miCalmScattered Clouds
5:11 AM12.2 °F-0.4 °F57 %30.30 in10.0 miCalmClear
5:33 AM12.2 °F-0.4 °F57 %30.30 in10.0 miWest (280°)4.6 mphClear
5:54 AM12.2 °F-0.4 °F57 %30.31 in10.0 miWest (270°)4.6 mphClear
6:15 AM10.4 °F-0.4 °F62 %30.31 in10.0 miCalmClear
6:37 AM10.4 °F-0.4 °F62 %30.32 in10.0 miCalmClear
6:58 AM12.2 °F-0.4 °F57 %30.31 in10.0 miWest (270°)3.5 mphScattered Clouds
7:19 AM12.2 °F-0.4 °F57 %30.32 in10.0 miWest (260°)4.6 mphClear
7:40 AM12.2 °F-0.4 °F57 %30.32 in10.0 miCalmClear
8:02 AM12.2 °F-0.4 °F57 %30.32 in10.0 miCalmClear
8:23 AM12.2 °F-0.4 °F57 %30.32 in10.0 miSouth (170°)3.5 mphClear
8:44 AM14.0 °F1.4 °F57 %30.33 in10.0 miSW (220°)4.6 mphScattered Clouds
9:06 AM14.0 °F1.4 °F57 %30.33 in10.0 miCalmMostly Cloudy
9:27 AM15.8 °F1.4 °F53 %30.33 in10.0 miWSW (250°)3.5 mphMostly Cloudy
10:10 AM17.6 °F1.4 °F49 %30.34 in10.0 miSW (220°)6.9 mphMostly Cloudy
10:31 AM17.6 °F1.4 °F49 %30.33 in10.0 miWest (280°)6.9 mphScattered Clouds
10:52 AM19.4 °F-0.4 °F42 %30.32 in10.0 miWest (270°)5.8 mphScattered Clouds
11:13 AM19.4 °F-0.4 °F42 %30.31 in10.0 miWest (260°)8.1 mph19.6 mphClear
11:35 AM19.4 °F-0.4 °F42 %30.29 in10.0 miWest (280°)9.2 mph16.1 mphClear
11:56 AM19.4 °F-0.4 °F42 %30.28 in10.0 miNW (310°)5.8 mph9.2 mphClear
12:17 PM21.2 °F-0.4 °F39 %30.27 in10.0 miWest (270°)4.6 mphClear
12:39 PM21.2 °F-0.4 °F39 %30.25 in10.0 miWNW (300°)3.5 mph9.2 mphClear
1:00 PM21.2 °F-0.4 °F39 %30.24 in10.0 miWNW (290°)5.8 mph16.1 mphScattered Clouds
1:21 PM21.2 °F-0.4 °F39 %30.23 in10.0 miSSW (210°)8.1 mphClear
1:42 PM21.2 °F-0.4 °F39 %30.23 in10.0 miWest (260°)12.7 mphClear
2:04 PM21.2 °F-0.4 °F39 %30.22 in10.0 miWNW (290°)9.2 mph16.1 mphClear
2:25 PM23.0 °F-0.4 °F36 %30.22 in10.0 miWest (260°)8.1 mphClear
2:46 PM23.0 °F1.4 °F39 %30.21 in10.0 miWSW (240°)9.2 mphClear
3:07 PM23.0 °F-0.4 °F36 %30.22 in10.0 miWNW (290°)9.2 mphClear
3:29 PM21.2 °F1.4 °F42 %30.22 in10.0 miWNW (290°)8.1 mph18.4 mphClear
3:50 PM21.2 °F1.4 °F42 %30.21 in10.0 miWest (280°)8.1 mphClear
4:11 PM21.2 °F1.4 °F42 %30.21 in10.0 miCalmClear
4:32 PM21.2 °F1.4 °F42 %30.20 in10.0 miWest (280°)8.1 mphScattered Clouds
5:15 PM21.2 °F3.2 °F46 %30.20 in10.0 miWNW (300°)4.6 mphClear
5:36 PM21.2 °F1.4 °F42 %30.20 in10.0 miWSW (250°)8.1 mphClear
5:57 PM21.2 °F3.2 °F46 %30.19 in10.0 miWest (260°)4.6 mphClear
6:19 PM21.2 °F1.4 °F42 %30.19 in10.0 miCalmClear
6:40 PM21.2 °F1.4 °F42 %30.19 in10.0 miWNW (290°)3.5 mphScattered Clouds
7:01 PM21.2 °F1.4 °F42 %30.18 in10.0 miCalmMostly Cloudy
7:22 PM21.2 °F1.4 °F42 %30.17 in10.0 miCalmMostly Cloudy
7:44 PM21.2 °F1.4 °F42 %30.17 in10.0 miCalmScattered Clouds
8:05 PM21.2 °F3.2 °F46 %30.17 in10.0 miCalmScattered Clouds
8:26 PM21.2 °F3.2 °F46 %30.17 in10.0 miCalmScattered Clouds
8:47 PM21.2 °F5.0 °F50 %30.17 in10.0 miCalmMostly Cloudy
9:09 PM21.2 °F6.8 °F54 %30.16 in10.0 miSouth (180°)5.8 mphMostly Cloudy
9:30 PM21.2 °F10.4 °F63 %30.15 in10.0 miSSW (210°)6.9 mphOvercast
9:51 PM21.2 °F10.4 °F63 %30.15 in10.0 miCalmOvercast
10:13 PM21.2 °F12.2 °F68 %30.15 in10.0 miCalmOvercast
10:34 PM19.4 °F12.2 °F74 %30.14 in10.0 miSouth (180°)3.5 mphOvercast
10:55 PM19.4 °F14.0 °F80 %30.13 in7.0 miCalmOvercast
11:17 PM19.4 °F14.0 °F80 %30.12 in5.0 miCalmOvercast
11:38 PM19.4 °F14.0 °F80 %30.12 in4.0 miCalmOvercast
11:59 PM19.4 °F15.8 °F86 %30.10 in3.0 miCalmOvercast
Hourly data recorded from KCBE, located miles away from Cumberland, Maryland







STORIES FROM OUR PARTNERS